Regional Weather Roundup
Issued by NWS

Home | Current Version | Previous Version | Text Only | Print | Product List | Glossary Off
Versions: 1 2 3 4 5 6 7 8 9 10 11 12 13 14 15 16 17 18 19 20 21 22 23 24 25 26 27 28 29 30 31 32 33 34 35 36 37 38 39 40 41 42 43 44 45 46 47 48 49 50

000
ASUS43 KLOT 251506
RWRIL

ILLINOIS REGIONAL WEATHER ROUNDUP
NATIONAL WEATHER SERVICE CHICAGO/ROMEOVILLE IL
1000 AM CDT FRI JUL 25 2014

NOTE: "FAIR" INDICATES FEW OR NO CLOUDS BELOW 12,000 FEET WITH NO
SIGNIFICANT WEATHER AND/OR OBSTRUCTIONS TO VISIBILITY.

* THESE STATIONS ARE NOT UNDER NWS QUALITY CONTROL. THEY ALSO MAY NOT
  REPORT WEATHER SUCH AS PRECIPITATION OR FOG.

ILZ001-002-007-009-015-016-024-251600-
NORTHWEST ILLINOIS

CITY           SKY/WX    TMP DP  RH WIND       PRES   REMARKS
MOLINE         CLOUDY    63  59  87 S10       30.00R
STERLING*      PTSUNNY   64  57  77 SW5       30.02S
SAVANNA*       PTSUNNY   65  59  81 S9        30.01F
$$

ILZ003-004-008-010-011-017-018-251600-
NORTH CENTRAL ILLINOIS

CITY           SKY/WX    TMP DP  RH WIND       PRES   REMARKS
ROCKFORD       CLOUDY    65  57  75 S9        30.04R
FREEPORT*      PTSUNNY   64  58  82 S13G21    30.02F
ROCHELLE*      DRIZZLE   63  58  83 SW9       30.03R
DE KALB*       LGT RAIN  61  56  82 S7        30.03S
PERU*          CLOUDY    63  59  87 S9        30.02F
$$

ILZ005-006-012>014-019>023-251600-
NORTHEAST ILLINOIS

CITY           SKY/WX    TMP DP  RH WIND       PRES   REMARKS
CHICAGO-OHARE  CLOUDY    68  52  56 S10       30.02F
CHICAGO-MIDWAY CLOUDY    70  56  61 S8        30.03F
AURORA         CLOUDY    65  57  75 SE8       30.02F
JOLIET*        PTSUNNY   68  56  64 S8        30.04S
WAUKEGAN       CLOUDY    67  54  63 S12       30.01F
DUPAGE AIRPORT CLOUDY    66  56  70 S12       30.02F
KANKAKEE*      PTSUNNY   72  58  62 S13       30.06F
WHEELING       CLOUDY    70  54  56 SW10      30.04F
MORRIS*        CLOUDY    67  57  70 S10       30.02F
ROMEOVILLE*    CLOUDY    67  56  68 S7        30.04S
$$

LMZ740>746-251600-
SOUTHERN LAKE MICHIGAN

STATION/POSITION SKY/WX   TEMP    WIND        PRES    VSBY  WAVE
                          AIR SEA DIR/SP/G                  HT/PER
                          (F)     (DEG/KT/KT) (MB)    (MI)  (FT/S)
SOUTHERN BUOY              62 61  180/  6/  8 1017.0F         1
WAUKEGAN HARBOR            67     240/  9/ 13   N/A
HARRISON CRIB              65     180/ 14/ 15   N/A
CALUMET HARBOR             67     200/  8/ 11 1015.8F
BURNS HARBOR               65     190/ 10/ 14 1019.0
MICHIGAN CITY              66     170/  9/ 13   N/A
MICHIGAN CITY 6N           66 68  180/ 10/ 10   N/A           1/ 3
ST. JOSEPH                 64 63  180/  8/ 10   N/A           2/ 3
$$

ILZ025>027-034>036-040-047-049-050-058-095>099-251600-
WEST-CENTRAL ILLINOIS

CITY           SKY/WX    TMP DP  RH WIND       PRES   REMARKS
QUINCY         LGT RAIN  62  59  90 SE8       30.02F
GALESBURG*     RAIN      60  59  95 CALM      30.02R
MACOMB*        RAIN      59  59 100 S17G23    29.98F
JACKSONVILLE*  LGT RAIN  63  61  94 SE3       30.08F
PITTSFIELD*    CLOUDY    62  59  90 CALM      30.07F
$$

ILZ028>032-037-038-041>044-048-051>054-059>061-251600-
CENTRAL ILLINOIS

CITY           SKY/WX    TMP DP  RH WIND       PRES   REMARKS
PONTIAC        LGT RAIN  64  61  88 S6        30.04F
DECATUR        CLOUDY    66  59  78 S6        30.11R
PEORIA         LGT RAIN  63  58  83 S15       30.00F
LACON*         DRIZZLE   62  58  86 S7        30.00F
LINCOLN*       LGT RAIN  62  59  91 CALM      30.07F
SPRINGFIELD    CLOUDY    65  60  84 S3        30.09F
TAYLORVILLE    CLOUDY    63  61  94 S3        30.10F
$$

ILZ033-039-045-046-055>057-062-063-251600-
EAST-CENTRAL ILLINOIS

CITY           SKY/WX    TMP DP  RH WIND       PRES   REMARKS
CHAMPAIGN      CLOUDY    66  59  78 S7        30.10F
DANVILLE*      CLOUDY    68  59  72 SW8       30.07F
RANTOUL*       CLOUDY    66  58  74 S8        30.09F
MATTOON        CLOUDY    67  58  72 S6        30.11F
PARIS*         CLOUDY    67  62  81 CALM      30.12F
$$

ILZ079-100>102-251600-
SOUTHWEST ILLINOIS

CITY           SKY/WX    TMP DP  RH WIND       PRES   REMARKS
ALTON          PTSUNNY   68  64  88 SE6       30.08R
CAHOKIA*       PTSUNNY   74  60  61 S3        30.07S
SPARTA*        SUNNY     72  61  68 S7        30.09S
$$

ILZ064>066-069>071-074>076-080>082-084>086-088>090-092>094-251600-
SOUTH-CENTRAL ILLINOIS

CITY           SKY/WX    TMP DP  RH WIND       PRES   REMARKS
CARBONDALE     MOSUNNY   74  57  55 S9        30.09S
CAIRO*         MOSUNNY   76  61  59 E8        30.09S
EFFINGHAM*     CLOUDY    69  56  63 CALM      30.12R
MARION         PTSUNNY   75  59  57 S6        30.10S
MT. VERNON     MOSUNNY   73  59  60 S6        30.11R
CENTRALIA*     PTSUNNY   77  59  54 S6        30.09S
SALEM*         PTSUNNY   74  62  66 S3        30.11R
METROPOLIS*    MOSUNNY   75  56  50 E5        30.08S
$$

ILZ067-068-072-073-078-083-087-091-251600-
SOUTHEAST ILLINOIS

CITY           SKY/WX    TMP DP  RH WIND       PRES   REMARKS
LAWRENCEVILLE  PTSUNNY   71  59  65 CALM      30.11R
FLORA*         PTSUNNY   71  59  66 SE5       30.11R
FAIRFIELD*     MOSUNNY   73  63  68 S5        30.11R
HARRISBURG*    MOSUNNY   72  62  70 S3        30.10F
ROBINSON*      CLOUDY    72  61  68 S3        30.12F
CARMI*         MOSUNNY   75  63  64 S3        30.09S
$$

ABBREVIATIONS USED IN REMARKS
   TC - TEMPERATURE IN CELSIUS
  WCI - WIND CHILL INDEX
   HX - HEAT INDEX
  VSB - VISIBILITY
$$




USA.gov is the U.S. government's official web portal to all federal, state and local government web resources and services.